Stations météo

réclame
Mon MeteoGroup
San Sebastian/Igueldo, Espagne (8027): Température de l'air & dewpoint: 05.12.2017 10:00:00 - 11.12.2017 10:00:00 (CET)San Sebastian/Igueldo, Espagne (8027): Vitesse du vent: 05.12.2017 10:00:00 - 11.12.2017 10:00:00 (CET)San Sebastian/Igueldo, Espagne (8027): Direction du vent: 05.12.2017 10:00:00 - 11.12.2017 10:00:00 (CET)San Sebastian/Igueldo, Espagne (8027): reduced air pressure: 05.12.2017 10:00:00 - 11.12.2017 10:00:00 (CET)San Sebastian/Igueldo, Espagne (8027): visibility: 05.12.2017 10:00:00 - 11.12.2017 10:00:00 (CET)
Date & Time tt [°C] td [°C] ff [km/h] ff [knt] dd ppp [hPa] vv [km]
11.12.2017 10:00:00 - - - - - - -
11.12.2017 09:00:00 - - - - - - -
11.12.2017 08:00:00 - - - - - - -
11.12.2017 07:00:00 7,0 4,3 24 13 W 987,8 25
11.12.2017 06:00:00 - - - - - - -
11.12.2017 05:00:00 - - - - - - -
11.12.2017 04:00:00 8,6 6,1 29 16 WNW 985,8 20
11.12.2017 03:00:00 - - - - - - -
11.12.2017 02:00:00 - - - - - - -
11.12.2017 01:00:00 17,4 6,0 35 19 WSW 981,8 20
11.12.2017 00:00:00 - - - - - - -
10.12.2017 23:00:00 - - - - - - -
10.12.2017 22:00:00 15,6 7,9 29 16 WSW 987,6 25
10.12.2017 21:00:00 - - - - - - -
10.12.2017 20:00:00 - - - - - - -
10.12.2017 19:00:00 10,6 10,1 16 9 NW 996,0 20
10.12.2017 18:00:00 - - - - - - -
10.12.2017 17:00:00 - - - - - - -
10.12.2017 16:00:00 12,0 11,2 21 11 NNW 1000,1 0,1
10.12.2017 15:00:00 - - - - - - -
10.12.2017 14:00:00 - - - - - - -
10.12.2017 13:00:00 15,2 8,2 28 15 WSW 1002,8 30
10.12.2017 12:00:00 - - - - - - -
10.12.2017 11:00:00 - - - - - - -
10.12.2017 10:00:00 13,8 7,3 35 19 SW 1005,9 25
10.12.2017 09:00:00 - - - - - - -
10.12.2017 08:00:00 - - - - - - -
10.12.2017 07:00:00 13,0 7,9 34 18 SW 1009,1 25
10.12.2017 06:00:00 - - - - - - -
10.12.2017 05:00:00 - - - - - - -
10.12.2017 04:00:00 12,8 8,5 15 8 WSW 1012,4 25
10.12.2017 03:00:00 - - - - - - -
10.12.2017 02:00:00 - - - - - - -
10.12.2017 01:00:00 12,4 9,8 22 12 SW 1014,9 25
10.12.2017 00:00:00 - - - - - - -
09.12.2017 23:00:00 - - - - - - -
09.12.2017 22:00:00 11,6 9,7 29 16 W 1016,0 30
09.12.2017 21:00:00 - - - - - - -
09.12.2017 20:00:00 - - - - - - -
09.12.2017 19:00:00 8,2 7,0 21 11 SW 1018,3 15
09.12.2017 18:00:00 - - - - - - -
09.12.2017 17:00:00 - - - - - - -
09.12.2017 16:00:00 8,6 5,5 15 8 SSW 1021,1 25
09.12.2017 15:00:00 - - - - - - -
09.12.2017 14:00:00 - - - - - - -
09.12.2017 13:00:00 8,7 5,6 13 7 SW 1024,9 30
09.12.2017 12:00:00 - - - - - - -
09.12.2017 11:00:00 - - - - - - -
09.12.2017 10:00:00 6,7 5,2 4 2 S 1026,9 13
09.12.2017 09:00:00 - - - - - - -
09.12.2017 08:00:00 - - - - - - -
09.12.2017 07:00:00 7,8 4,6 8 4 N 1026,7 30
09.12.2017 06:00:00 - - - - - - -
09.12.2017 05:00:00 - - - - - - -
09.12.2017 04:00:00 7,8 4,4 18 10 NE 1027,4 20
09.12.2017 03:00:00 - - - - - - -
09.12.2017 02:00:00 - - - - - - -
09.12.2017 01:00:00 8,5 4,1 18 10 NE 1027,8 30
09.12.2017 00:00:00 - - - - - - -
08.12.2017 23:00:00 - - - - - - -
08.12.2017 22:00:00 8,8 5,9 21 11 NE 1027,8 15
08.12.2017 21:00:00 - - - - - - -
08.12.2017 20:00:00 - - - - - - -
08.12.2017 19:00:00 8,0 7,6 15 8 NNW 1027,6 20
08.12.2017 18:00:00 - - - - - - -
08.12.2017 17:00:00 - - - - - - -
08.12.2017 16:00:00 8,5 8,4 18 10 N 1027,3 0,3
08.12.2017 15:00:00 - - - - - - -
08.12.2017 14:00:00 - - - - - - -
08.12.2017 13:00:00 8,6 8,2 9 5 N 1027,5 4,0
08.12.2017 12:00:00 - - - - - - -
08.12.2017 11:00:00 - - - - - - -
08.12.2017 10:00:00 10,0 9,5 21 11 N 1026,8 -
08.12.2017 09:00:00 - - - - - - -
08.12.2017 08:00:00 - - - - - - -
08.12.2017 07:00:00 10,2 9,4 15 8 NW 1025,2 3,0
08.12.2017 06:00:00 - - - - - - -
08.12.2017 05:00:00 - - - - - - -
08.12.2017 04:00:00 9,2 8,4 15 8 WSW 1025,1 8
08.12.2017 03:00:00 - - - - - - -
08.12.2017 02:00:00 - - - - - - -
08.12.2017 01:00:00 10,0 5,4 15 8 SW 1025,4 18
08.12.2017 00:00:00 - - - - - - -
07.12.2017 23:00:00 - - - - - - -
07.12.2017 22:00:00 11,0 2,8 15 8 SW 1025,4 25
07.12.2017 21:00:00 - - - - - - -
07.12.2017 20:00:00 - - - - - - -
07.12.2017 19:00:00 10,2 2,3 16 9 SW 1026,1 25
07.12.2017 18:00:00 - - - - - - -
07.12.2017 17:00:00 - - - - - - -
07.12.2017 16:00:00 12,6 0,7 16 9 SSW 1025,8 30
07.12.2017 15:00:00 - - - - - - -
07.12.2017 14:00:00 - - - - - - -
07.12.2017 13:00:00 11,4 -0,4 16 9 SSW 1027,5 50
07.12.2017 12:00:00 - - - - - - -
07.12.2017 11:00:00 - - - - - - -
07.12.2017 10:00:00 8,6 -1,2 15 8 SSW 1028,6 50
07.12.2017 09:00:00 - - - - - - -
07.12.2017 08:00:00 - - - - - - -
07.12.2017 07:00:00 8,1 -2,2 22 12 SSW 1028,3 50
07.12.2017 06:00:00 - - - - - - -
07.12.2017 05:00:00 - - - - - - -
07.12.2017 04:00:00 7,6 -2,1 18 10 SSW 1029,1 50
07.12.2017 03:00:00 - - - - - - -
07.12.2017 02:00:00 - - - - - - -
07.12.2017 01:00:00 6,6 -1,3 13 7 SW 1030,5 50
07.12.2017 00:00:00 - - - - - - -
06.12.2017 23:00:00 - - - - - - -
06.12.2017 22:00:00 6,8 0,0 11 6 SSW 1031,1 50
06.12.2017 21:00:00 - - - - - - -
06.12.2017 20:00:00 - - - - - - -
06.12.2017 19:00:00 7,7 1,5 9 5 SSW 1031,0 50
06.12.2017 18:00:00 - - - - - - -
06.12.2017 17:00:00 - - - - - - -
06.12.2017 16:00:00 11,1 2,7 11 6 SW 1030,6 50
06.12.2017 15:00:00 - - - - - - -
06.12.2017 14:00:00 - - - - - - -
06.12.2017 13:00:00 9,5 1,7 2 1 NW 1032,1 60
06.12.2017 12:00:00 - - - - - - -
06.12.2017 11:00:00 - - - - - - -
06.12.2017 10:00:00 5,0 0,4 11 6 SSW 1033,5 60
06.12.2017 09:00:00 - - - - - - -
06.12.2017 08:00:00 - - - - - - -
06.12.2017 07:00:00 3,7 0,8 18 10 SSW 1033,6 60
06.12.2017 06:00:00 - - - - - - -
06.12.2017 05:00:00 - - - - - - -
06.12.2017 04:00:00 3,8 1,2 9 5 SSW 1034,7 60
06.12.2017 03:00:00 - - - - - - -
06.12.2017 02:00:00 - - - - - - -
06.12.2017 01:00:00 3,8 1,7 8 4 SSW 1035,2 60
06.12.2017 00:00:00 - - - - - - -
05.12.2017 23:00:00 - - - - - - -
05.12.2017 22:00:00 4,9 2,8 8 4 SW 1035,7 60
05.12.2017 21:00:00 - - - - - - -
05.12.2017 20:00:00 - - - - - - -
05.12.2017 19:00:00 7,1 2,0 8 4 S 1035,8 60
05.12.2017 18:00:00 - - - - - - -
05.12.2017 17:00:00 - - - - - - -
05.12.2017 16:00:00 8,4 3,3 5 3 ESE 1035,6 60
05.12.2017 15:00:00 - - - - - - -
05.12.2017 14:00:00 - - - - - - -
05.12.2017 13:00:00 6,9 3,5 5 3 NNE 1037,1 40
05.12.2017 12:00:00 - - - - - - -
05.12.2017 11:00:00 - - - - - - -
05.12.2017 10:00:00 5,4 4,1 4 2 SSE 1037,7 35

tt = Température de l'air
td = dewpoint
ff = Vitesse du vent
dd = Direction du vent
ppp = reduced air pressure
vv = visibility

stations d'obs. à proximité